Location: Unspecified
(48.1682°N, 0.0000°E)
Time: 02:52:43
(UTC+00:00)

H-2A R/B - Visible Passes

Search period start: 04 April 2026 00:00
Search period end: 14 April 2026 00:00
Orbit: 552 x 611 km, 98.5° (Epoch: 28 March)

Date Brightness Start Highest point End Pass type
(mag) Time Alt. Az. Time Alt. Az. Time Alt. Az.
4 Apr 4.6 02:43:54 10° NE 02:46:32 16° E 02:49:06 10° SE visible
4 Apr 2.1 04:18:02 10° N 04:22:09 55° WNW 04:25:58 11° SSW visible
5 Apr 4.5 02:49:00 10° NE 02:51:52 18° E 02:54:42 10° SE visible
5 Apr 2.2 04:23:23 10° N 04:27:26 49° WNW 04:31:22 10° SW visible
6 Apr 4.3 02:54:08 10° NE 02:57:13 20° E 03:00:14 10° SE visible
6 Apr 2.4 04:28:43 10° N 04:32:42 43° WNW 04:36:34 10° SW visible
7 Apr 4.2 02:59:16 10° NE 03:02:32 22° E 03:05:44 10° SE visible
7 Apr 2.5 04:34:04 10° N 04:37:57 39° WNW 04:41:45 10° SW visible
8 Apr 4.0 03:04:26 10° NE 03:07:51 24° E 03:11:12 10° SSE visible
8 Apr 2.7 04:39:24 10° N 04:43:11 35° WNW 04:46:54 10° SW visible
9 Apr 3.8 03:09:36 10° NE 03:13:10 27° E 03:16:38 10° SSE visible
9 Apr 2.8 04:44:45 10° N 04:48:26 31° WNW 04:52:02 10° SW visible
10 Apr 3.6 03:14:47 10° NE 03:18:27 30° E 03:22:02 10° SSE visible
11 Apr 3.4 03:19:57 10° NNE 03:23:44 34° E 03:27:25 10° SSE visible
12 Apr 3.2 03:25:09 10° NNE 03:29:00 38° E 03:32:46 10° SSE visible
13 Apr 3.0 03:30:20 10° NNE 03:34:16 42° E 03:38:05 10° S visible
